Home > Weather > Dreieich > Past weeks

Flag for Germany Past Weather in Dreieich, Hesse, Germany — Yesterday and Last 2 Weeks

Now
72 °F

Sunny.


Feels Like: 77 °F
Forecast: 53 / 72 °F
Wind: 9 mph from Northeast

Location: Frankfurt-M-Flughafen Airport

Current Time: May 26, 2016 at 8:33:35 PM

Latest Report: May 26, 2016 at 7:50 PM


Visibility: 10 mi

Pressure: 29.95 "Hg

Humidity: 41%

Dew Point: 46 °F

Location of DreieichLocation

Past Weather in Dreieich — Graph

°F

Dreieich Temperature Yesterday

Maximum temperature yesterday: 61 °F (at 7:50 PM)
Minimum temperature yesterday: 48 °F (at 11:50 PM)
Average temperature yesterday: 54 °F

High & Low Weather Summary for the Past Weeks

 TemperatureHumidityPressure
High81 °F (May 22, 3:20 PM)100% (May 13, 11:50 PM)30.12 "Hg (May 13, 11:50 PM)
Low41 °F (May 15, 5:50 AM)24% (May 22, 3:50 PM)29.45 "Hg (May 12, 8:20 PM)
Average57 °F68%29.90 "Hg
* Reported May 11 7:20 PM — May 26 7:20 PM, Dreieich, Weather by CustomWeather, © 2016

Note: Actual official high and low records may vary slightly from our data, if they occured in-between our weather recording intervals... More about our weather records

Advertising

Dreieich Weather History for the Previous 24 Hours

Scroll right to see more
 ConditionsComfort  
Time TempWeatherWind HumidityBarometerVisibility
7:20 PM
Thu, May 26
73 °FPassing clouds.5 mph36%29.95 "HgN/A
6:50 PM75 °FSunny.3 mph34%29.95 "Hg10 mi
6:20 PM75 °FPassing clouds.5 mph31%29.95 "HgN/A
5:50 PM75 °FSunny.2 mph31%29.98 "Hg10 mi
5:20 PM73 °FSunny.2 mph36%29.98 "Hg10 mi
4:50 PM75 °FSunny.3 mph31%29.98 "Hg10 mi
4:20 PM73 °FSunny.5 mph33%29.98 "Hg10 mi
3:50 PM73 °FPassing clouds.3 mph38%29.98 "HgN/A
3:20 PM73 °FSunny.5 mph38%29.98 "Hg10 mi
2:50 PM72 °FSunny.2 mph41%30.01 "Hg10 mi
2:20 PM72 °FSunny.2 mph41%30.01 "Hg10 mi
1:50 PM72 °FPassing clouds.3 mph41%30.01 "HgN/A
1:20 PM70 °FPassing clouds.3 mph43%30.01 "HgN/A
12:50 PM70 °FPassing clouds.5 mph46%30.01 "HgN/A
12:20 PM68 °FScattered clouds.6 mph53%30.01 "HgN/A
11:50 AM66 °FScattered clouds.3 mph52%30.01 "HgN/A
11:20 AM64 °FPartly sunny.6 mph64%30.04 "HgN/A
10:50 AM63 °FPartly sunny.3 mph68%30.04 "HgN/A
10:20 AM59 °FPartly sunny.7 mph77%30.04 "HgN/A
9:50 AM55 °FScattered clouds.7 mph88%30.04 "Hg4 mi
9:20 AM54 °FFog.6 mph88%30.04 "Hg2 mi
8:50 AM52 °FFog.5 mph94%30.04 "Hg1 mi
8:20 AM50 °FFog.5 mph100%30.04 "Hg1 mi
7:50 AM50 °FFog.6 mph100%30.04 "Hg0 mi
7:20 AM48 °FFog.6 mph100%30.04 "Hg0 mi
6:50 AM48 °FFog.6 mph94%30.01 "Hg0 mi
6:20 AM46 °FCool.6 mph93%30.01 "Hg1 mi
5:50 AM46 °FPassing clouds.3 mph93%30.01 "Hg0 mi
5:20 AM46 °FCool.5 mph93%30.01 "Hg2 mi
4:50 AM45 °FFog.2 mph100%30.01 "Hg4 mi
4:20 AM45 °FFog.1 mph100%30.01 "HgN/A
3:50 AM46 °FFog.3 mph93%30.01 "HgN/A
3:20 AM46 °FFog.2 mph93%30.01 "HgN/A
2:50 AM46 °FFog.1 mph93%30.01 "HgN/A
2:20 AM46 °FFog.2 mph100%30.01 "HgN/A
1:50 AM46 °FFog.1 mph93%30.01 "HgN/A
1:20 AM46 °FFog.No wind93%30.01 "HgN/A
12:50 AM46 °FFog.1 mph100%30.01 "HgN/A
12:20 AM48 °FFog.1 mph94%30.01 "HgN/A
11:50 PM
Wed, May 25
48 °FFog.2 mph94%30.01 "HgN/A
11:20 PM50 °FFog.1 mph94%30.01 "HgN/A
10:50 PM50 °FFog.2 mph94%30.01 "HgN/A
10:20 PM50 °FFog.1 mph94%30.01 "HgN/A
9:50 PM52 °FFog.1 mph94%30.01 "HgN/A
9:20 PM55 °FPartly sunny.3 mph82%29.98 "HgN/A
8:50 PM57 °FPartly sunny.3 mph82%29.98 "HgN/A
8:20 PM61 °FPartly sunny.2 mph68%29.98 "HgN/A
Weather by CustomWeather, © 2016

See weather overviewHow to use our weather pages